[[{"header":{"parameterUnit":"m.s-1","parameterCategory":1,"la1":30.2991,"la2":30.254,"lo1":-89.0895,"lo2":-89.0444,"dy":0.0017,"dx":0.0017,"nx":28,"ny":28,"refTime":"2025-01-05T03:00:00:Z","depth":0,"parameterNumber":2,"parameterNumberName":"U-component_of_WINDS"},"data":[0,0,0,0,0,0,0,0,0,0,0,0,0,0,0,0,0,0,0,0,0,0,0,0,0,0,0,0,0,0,0,0,0,0,0,0,0,0,0,0,0,0,0,0,0,0,0,0,0,0,0,0,0,0,0,0,0,0,-4.8967,-4.8968,0,-4.9065,-4.9066,-4.9067,-4.9048,-4.9046,-4.9044,-4.9043,-4.9143,-4.9147,-4.9152,0,0,0,0,0,0,0,0,0,0,0,0,0,-4.8763,-4.8767,-4.8966,-4.8968,-4.8969,-4.9065,-4.9066,-4.9067,-4.9048,-4.9046,-4.9044,-4.9042,-4.9142,-4.9147,-4.9152,0,0,0,0,0,0,0,0,0,0,0,0,0,-4.8855,-4.8768,-4.8966,-4.8971,-4.8972,-4.9064,-4.9066,-4.9068,-4.9049,-4.9046,-4.9043,-4.9041,-4.914,-4.9146,-4.9153,-4.9246,0,0,-4.9173,-4.9176,0,0,0,0,0,0,0,0,-4.885,-4.8863,-4.8969,-4.8971,-4.8973,-4.9041,-4.9031,-4.9128,-4.9049,-4.902,-4.9043,-4.904,-4.9112,-4.912,-4.9145,-4.9251,-4.9255,-4.9173,-4.9177,-4.918,-4.9182,0,0,0,0,0,0,0,-4.8844,-4.8859,-4.9005,-4.8971,-4.8973,-4.8968,-4.8979,-4.9049,-4.9079,-4.9022,-4.9021,-4.9033,-4.9112,-4.9138,-4.9147,-4.9257,-4.9173,-4.9179,-4.9183,-4.9185,-4.9445,-4.9448,0,0,0,0,0,0,-4.8836,-4.8853,-4.9002,-4.9008,-4.8904,-4.8974,-4.8986,-4.9022,-4.9079,-4.9085,-4.9035,-4.9032,-4.9128,-4.9139,-4.915,-4.9262,-4.918,-4.9186,-4.919,-4.9442,-4.9446,-4.9449,0,0,0,0,0,0,-4.8831,-4.8849,-4.8998,-4.8931,-4.8949,-4.8981,-4.9022,-4.9025,-4.9051,-4.9088,-4.9094,-4.9056,-4.9127,-4.9141,-4.9222,-4.9265,-4.9189,-4.9195,-4.9438,-4.9443,-4.9447,-4.9487,0,0,0,0,0,0,-4.8826,-4.8848,-4.8883,-4.8932,-4.8953,-4.9068,-4.9024,-4.9029,-4.9063,-4.9059,-4.911,-4.9115,-4.9126,-4.9213,-4.9229,-4.9273,-4.92,-4.9435,-4.944,-4.9446,-4.9481,-4.9492,-4.9501,0,0,0,0,0,-4.8818,-4.889,-4.8885,-4.8903,-4.8998,-4.9071,-4.9083,-4.9094,-4.9066,-4.9102,-4.9126,-4.9114,-4.9259,-4.9221,-4.9239,-4.9285,-4.9432,-4.9439,-4.9445,-4.9477,-4.949,-4.95,0,0,0,0,0,0,-4.8845,-4.8896,-4.8891,-4.8981,-4.9022,-4.9068,-4.9112,-4.9107,-4.9156,-4.9151,-4.9162,-4.9174,-4.9256,-4.928,-4.9237,-4.9379,-4.9342,-4.9352,-4.936,-4.9372,-4.9381,-4.9372,-4.9205,0,0,0,0,0,-4.8862,-4.8917,-4.8959,-4.9034,-4.9055,-4.9081,-4.9113,-4.9118,-4.9161,-4.9178,-4.9208,-4.925,-4.9305,-4.934,-4.9393,-4.9487,-4.9497,-4.9528,-4.9537,-4.9545,-4.9553,-4.9603,-4.9616,-4.9471,-4.9471,-4.9471,0,0,-4.8896,-4.8931,-4.8965,-4.904,-4.9072,-4.9129,-4.9095,-4.9156,-4.9198,-4.9187,-4.9264,-4.9289,-4.9337,-4.9424,-4.9465,-4.9446,-4.9596,-4.9554,-4.9559,-4.9563,-4.9611,-4.9625,-4.9637,-4.9476,-4.9475,-4.9474,0,0,-4.8986,-4.9019,-4.9084,-4.9118,-4.9167,-4.9184,-4.9201,-4.9248,-4.9263,-4.9342,-4.9335,-4.9386,-4.9481,-4.9515,-4.9545,-4.9651,-4.9641,-4.9669,-4.9717,-4.9766,-4.9777,-4.9787,-4.9823,-4.9836,-4.9677,-4.9677,-4.9677,0,-4.9021,-4.9106,-4.9119,-4.9181,-4.9214,-4.9208,-4.9274,-4.9306,-4.9371,-4.9394,-4.9374,-4.9493,-4.9525,-4.962,-4.9646,-4.9671,-4.9689,-4.966,-4.9775,-4.9785,-4.9794,-4.9828,-4.9842,-4.968,-4.968,-4.9679,-4.9679,0,-4.9146,-4.9206,-4.9253,-4.9315,-4.9354,-4.9418,-4.9441,-4.9479,-4.9482,-4.9501,-4.9582,-4.9621,-4.9681,-4.9705,-4.9709,-4.9801,-4.9788,-4.9772,-4.9733,-4.9811,-4.9843,-4.9856,-4.9684,-4.9683,-4.9682,-4.9681,0,0,-4.9251,-4.9322,-4.9338,-4.9366,-4.9422,-4.9468,-4.9533,-4.9592,-4.9624,-4.9671,-4.9724,-4.9806,-4.9791,-4.9825,-4.9833,-4.9876,-4.9956,-4.9854,-4.9855,-4.9869,-5.0058,-5.0067,-5.0082,-4.9952,-4.9954,-4.9956,-5.0053,0,-4.9344,-4.9456,-4.9471,-4.9571,-4.9625,-4.9622,-4.9678,-4.9719,-4.974,-4.979,-4.9813,-4.987,-4.9847,-4.9868,-4.9911,-4.9937,-4.9993,-4.9931,-5.0,-5.0002,-4.9983,-5.0099,-5.0109,-5.0198,-5.0066,-5.0068,-5.007,0,-4.9466,-4.9515,-4.962,-4.9669,-4.9692,-4.9742,-4.9798,-4.9846,-4.9893,-4.9905,-4.9944,-4.9947,-5.0014,-4.9977,-5.0069,-5.0026,-5.0056,-5.0074,-5.0078,-5.0081,-5.0037,-5.0102,-5.0227,-5.0239,-5.009,-5.0088,-5.0087,0,-4.9528,-4.9621,-4.9696,-4.9721,-4.978,-4.9815,-4.9842,-4.9886,-4.9921,-4.9971,-4.9993,-5.0051,-5.0081,-5.0125,-5.0144,-5.0115,-5.0234,-5.0199,-5.0245,-5.0244,-5.0266,-5.0264,-5.0393,-5.0293,-5.0292,-5.0292,-5.0292,0,-4.9627,-4.9691,-4.9724,-4.977,-4.9841,-4.9859,-4.9929,-4.9955,-4.9995,-5.0045,-5.0048,-5.0096,-5.0119,-5.0171,-5.0186,-5.0259,-5.0274,-5.0285,-5.0287,-5.0282,-5.028,-5.0299,-5.0291,-5.0296,-5.0295,-5.0294,-5.0294,0,-4.9706,-4.9732,-4.9812,-4.9863,-4.9878,-4.9928,-4.9971,-5.0016,-5.0038,-5.0102,-5.0118,-5.0153,-5.0213,-5.0238,-5.0312,-5.0323,-5.0406,-5.0406,-5.0389,-5.0389,-5.0433,-5.0427,-5.0575,-5.0595,-5.0484,-5.0485,-5.0486,0,-4.9766,-4.9815,-4.9871,-4.9905,-4.9933,-4.9988,-5.0024,-5.0044,-5.0082,-5.014,-5.0177,-5.0238,-5.0287,-5.0385,-5.0416,-5.0474,-5.0473,-5.0521,-5.0481,-5.0474,-5.0469,-5.0465,-5.0469,-5.0527,-5.0528,-5.0529,-5.0529,0,-4.9868,-4.9879,-4.993,-4.9986,-5.0029,-5.0075,-5.0119,-5.0147,-5.0174,-5.0217,-5.0279,-5.0317,-5.0394,-5.0454,-5.0513,-5.0541,-5.0539,-5.0543,-5.0556,-5.0549,-5.0536,-5.054,-5.0405,-5.0538,-5.0537,-5.0536,-5.0536,-5.0536,-4.9937,-4.998,-5.0026,-5.0084,-5.012,-5.0161,-5.0205,-5.0234,-5.0286,-5.0349,-5.0359,-5.0425,-5.0472,-5.0552,-5.0583,-5.0635,-5.0622,-5.0642,-5.0646,-5.065,-5.0651,-5.0531,-5.0647,-5.0647,-5.0646,-5.0646,-5.0646,0,-5.0036,-5.0067,-5.012,-5.0181,-5.0227,-5.0224,-5.0273,-5.0311,-5.0369,-5.0413,-5.0462,-5.0534,-5.0593,-5.0631,-5.069,-5.0725,-5.0726,-5.0739,-5.0735,-5.0741,-5.0661,-5.0642,-5.0738,-5.0738,-5.0738,-5.0738,-5.0738,-5.0737,-5.0093,-5.0165,-5.0182,-5.0272,-5.0302,-5.0366,-5.0395,-5.0433,-5.0469,-5.0548,-5.0597,-5.0622,-5.0664,-5.0727,-5.0781,-5.0791,-5.0811,-5.0825,-5.0833,-5.0757,-5.0747,-5.0738,-5.072,-5.083,-5.083,-5.0909,-5.091,-5.091]},{"header":{"parameterUnit":"m.s-1","parameterCategory":1,"la1":30.2991,"la2":30.254,"lo1":-89.0895,"lo2":-89.0444,"dy":0.0017,"dx":0.0017,"nx":28,"ny":28,"refTime":"2025-01-05T03:00:00:Z","depth":0,"parameterNumber":3,"parameterNumberName":"V-component_of_WINDS"},"data":[0,0,0,0,0,0,0,0,0,0,0,0,0,0,0,0,0,0,0,0,0,0,0,0,0,0,0,0,0,0,0,0,0,0,0,0,0,0,0,0,0,0,0,0,0,0,0,0,0,0,0,0,0,0,0,0,0,0,3.6902,3.6904,0,3.7084,3.7086,3.7088,3.7115,3.7113,3.7112,3.711,3.7295,3.7301,3.7307,0,0,0,0,0,0,0,0,0,0,0,0,0,3.6582,3.6587,3.6902,3.6905,3.6907,3.7083,3.7086,3.7088,3.7115,3.7113,3.7111,3.7109,3.7293,3.73,3.7308,0,0,0,0,0,0,0,0,0,0,0,0,0,3.6738,3.6589,3.6902,3.6942,3.6947,3.7083,3.7086,3.7089,3.7116,3.7113,3.7111,3.7108,3.729,3.7299,3.7309,3.7418,0,0,3.7338,3.7343,0,0,0,0,0,0,0,0,3.6729,3.6749,3.6933,3.6939,3.6945,3.7074,3.704,3.7199,3.7116,3.7052,3.711,3.7107,3.7223,3.7238,3.7278,3.7426,3.7434,3.7339,3.7345,3.7349,3.7352,0,0,0,0,0,0,0,3.6718,3.6742,3.6974,3.6936,3.6943,3.6951,3.697,3.7071,3.7149,3.7057,3.7059,3.7081,3.7226,3.7268,3.7282,3.7437,3.7339,3.7348,3.7354,3.7357,3.7687,3.769,0,0,0,0,0,0,3.67,3.6733,3.6968,3.6979,3.6829,3.6959,3.6981,3.7035,3.7148,3.7163,3.7082,3.7081,3.7253,3.7271,3.7289,3.7425,3.7349,3.7358,3.7364,3.7684,3.7688,3.7691,0,0,0,0,0,0,3.6693,3.6721,3.6961,3.6857,3.6888,3.6967,3.7028,3.704,3.7082,3.7167,3.7181,3.7111,3.7252,3.7275,3.7386,3.7432,3.7363,3.7371,3.7681,3.7686,3.769,3.7697,0,0,0,0,0,0,3.6683,3.6718,3.6759,3.6858,3.6893,3.7055,3.7031,3.7045,3.7099,3.7099,3.7198,3.7212,3.7252,3.7372,3.7396,3.7444,3.7379,3.7677,3.7683,3.7688,3.7693,3.7702,3.7709,0,0,0,0,0,3.6672,3.6753,3.6761,3.6789,3.6947,3.7057,3.7078,3.7122,3.7102,3.7145,3.7201,3.7209,3.7423,3.7383,3.741,3.7462,3.7674,3.7681,3.7688,3.769,3.77,3.7708,0,0,0,0,0,0,3.6657,3.6767,3.6776,3.6892,3.6965,3.7061,3.7116,3.7131,3.7211,3.7207,3.7259,3.7281,3.739,3.7437,3.739,3.7575,3.7547,3.756,3.754,3.755,3.7557,3.7543,3.7387,0,0,0,0,0,3.6667,3.6747,3.6839,3.6932,3.6969,3.7037,3.7086,3.7115,3.7192,3.7223,3.7286,3.7362,3.7447,3.7501,3.7583,3.7701,3.7724,3.7751,3.7758,3.7764,3.7774,3.7842,3.7856,3.7713,3.7713,3.7713,0,0,3.6688,3.6759,3.6806,3.6931,3.6991,3.7074,3.7062,3.7149,3.7212,3.7236,3.7346,3.7395,3.7483,3.7598,3.7652,3.7641,3.7819,3.7772,3.7776,3.7783,3.7851,3.7864,3.7876,3.7718,3.7717,3.7716,0,0,3.677,3.6831,3.6916,3.6978,3.7069,3.7115,3.7135,3.7231,3.7265,3.7376,3.7397,3.7472,3.7616,3.7679,3.7729,3.7839,3.7851,3.7865,3.7904,3.797,3.7981,3.7992,3.8032,3.8046,3.7875,3.7875,3.7875,0,3.6785,3.6911,3.6958,3.7046,3.7101,3.7129,3.7217,3.7274,3.7388,3.7426,3.7412,3.7596,3.7657,3.7789,3.7816,3.7856,3.7882,3.7853,3.7976,3.7987,3.7997,3.8036,3.8051,3.7876,3.7876,3.7876,3.7876,0,3.6926,3.7013,3.7071,3.7182,3.7244,3.7331,3.7393,3.745,3.7474,3.7521,3.7635,3.771,3.7809,3.7843,3.7867,3.798,3.797,3.7965,3.7939,3.8011,3.8049,3.8064,3.7878,3.7877,3.7877,3.7877,0,0,3.7,3.7139,3.7159,3.7211,3.7316,3.7385,3.7475,3.7573,3.7622,3.7701,3.7778,3.7902,3.7899,3.7957,3.7988,3.8046,3.8131,3.8035,3.8038,3.8051,3.8262,3.8265,3.8281,3.814,3.8143,3.8145,3.8255,0,3.7094,3.7255,3.7302,3.7438,3.752,3.755,3.7628,3.7702,3.775,3.7827,3.788,3.7967,3.7956,3.7992,3.8051,3.8108,3.8174,3.8101,3.8213,3.8216,3.819,3.8301,3.8303,3.8403,3.827,3.8273,3.8275,0,3.7225,3.7308,3.7452,3.755,3.7586,3.7656,3.7751,3.7825,3.791,3.7941,3.8007,3.8035,3.8131,3.81,3.8235,3.8184,3.8233,3.8269,3.8274,3.8286,3.8249,3.8316,3.8436,3.8451,3.8298,3.8296,3.8295,0,3.7266,3.7414,3.752,3.7563,3.7679,3.7728,3.7779,3.7862,3.7919,3.8003,3.8041,3.8135,3.8186,3.8259,3.8312,3.8284,3.8442,3.8415,3.8471,3.847,3.8502,3.8499,3.8632,3.8534,3.8534,3.8533,3.8533,0,3.7366,3.7453,3.754,3.7605,3.7704,3.7759,3.7856,3.7909,3.7983,3.806,3.8091,3.8163,3.8228,3.8309,3.8351,3.8457,3.848,3.8508,3.8518,3.8506,3.8502,3.8538,3.8532,3.8537,3.8537,3.8536,3.8535,0,3.7428,3.7489,3.7607,3.7709,3.7737,3.7806,3.7893,3.7958,3.8008,3.8105,3.8131,3.821,3.8307,3.8367,3.849,3.8519,3.8636,3.8643,3.8607,3.8612,3.8664,3.8659,3.8825,3.885,3.8734,3.8735,3.8736,0,3.7488,3.7556,3.7666,3.772,3.7772,3.7858,3.7917,3.7975,3.8036,3.814,3.8193,3.8293,3.8375,3.8529,3.8598,3.8693,3.8703,3.8755,3.8717,3.8703,3.8705,3.87,3.8708,3.876,3.8761,3.8762,3.8763,0,3.7588,3.7616,3.77,3.7796,3.7866,3.7944,3.8022,3.8065,3.8136,3.8203,3.8303,3.8368,3.8495,3.8594,3.8695,3.8749,3.8768,3.8774,3.8793,3.878,3.8756,3.8771,3.8624,3.877,3.8769,3.8769,3.8768,3.8768,3.7651,3.7714,3.7802,3.7896,3.7961,3.8034,3.8102,3.8161,3.8246,3.8354,3.8383,3.8489,3.8576,3.8715,3.8771,3.8855,3.8847,3.8873,3.888,3.8886,3.8887,3.8743,3.8873,3.8873,3.8873,3.8873,3.8873,0,3.7754,3.7813,3.7898,3.8008,3.8082,3.8096,3.8184,3.8245,3.8338,3.8417,3.8499,3.8616,3.8713,3.879,3.889,3.8943,3.8955,3.8967,3.8964,3.8977,3.8887,3.8862,3.8956,3.8956,3.8956,3.8956,3.8956,3.8956,3.7816,3.7924,3.7963,3.8104,3.8163,3.8267,3.8317,3.8385,3.8449,3.8578,3.866,3.871,3.879,3.8897,3.8987,3.9008,3.9043,3.9054,3.9077,3.8992,3.8982,3.8974,3.895,3.9062,3.9062,3.9159,3.916,3.9161]}]]